| time (UTC) | temp F | wind direction | speed MPH | gust MPH | rain 1hr in | rain 24hr in | rain mn in | humidity % | barometer mb |
| 20260901205314 | 85 | 52 | 7.0 | 8.0 | 0.00 | 0.05 | 0.05 | 83 | 1017.2 |
| 20260901204809 | 84 | 100 | 4.0 | 6.0 | 0.00 | 0.05 | 0.05 | 86 | 1017.2 |
| 20260901204306 | 84 | 46 | 3.0 | 3.0 | 0.00 | 0.05 | 0.05 | 89 | 1017.2 |
| 20260901203805 | 84 | 32 | 4.0 | 5.0 | 0.00 | 0.05 | 0.05 | 88 | 1017.2 |
| 20260901203300 | 85 | 55 | 4.0 | 6.0 | 0.00 | 0.05 | 0.05 | 87 | 1017.2 |
| 20260901202759 | 85 | 63 | 3.0 | 5.0 | 0.00 | 0.05 | 0.05 | 85 | 1017.5 |
| 20260901202255 | 86 | 35 | 6.0 | 8.0 | 0.00 | 0.05 | 0.05 | 85 | 1017.2 |
| 20260901201751 | 85 | 86 | 3.0 | 3.0 | 0.00 | 0.05 | 0.05 | 85 | 1017.2 |
| 20260901201250 | 85 | 53 | 3.0 | 3.0 | 0.00 | 0.05 | 0.05 | 84 | 1017.2 |
| 20260901200744 | 85 | 75 | 3.0 | 5.0 | 0.00 | 0.05 | 0.05 | 85 | 1017.5 |
| 20260901200240 | 85 | 63 | 6.0 | 7.0 | 0.00 | 0.05 | 0.05 | 84 | 1017.5 |
| 20260901195738 | 85 | 63 | 6.0 | 7.0 | 0.00 | 0.05 | 0.05 | 84 | 1017.9 |
| 20260901195232 | 85 | 33 | 5.0 | 7.0 | 0.00 | 0.05 | 0.05 | 83 | 1017.5 |
| 20260901194728 | 85 | 25 | 4.0 | 6.0 | 0.00 | 0.05 | 0.05 | 84 | 1017.5 |
| 20260901194222 | 85 | 64 | 3.0 | 5.0 | 0.00 | 0.05 | 0.05 | 84 | 1017.9 |
| 20260901193718 | 85 | 52 | 2.0 | 3.0 | 0.00 | 0.05 | 0.05 | 84 | 1017.5 |
| 20260901193212 | 85 | 54 | 7.0 | 8.0 | 0.00 | 0.05 | 0.05 | 83 | 1017.5 |
| 20260901192707 | 85 | 42 | 6.0 | 8.0 | 0.00 | 0.05 | 0.05 | 83 | 1017.9 |
| 20260901192203 | 85 | 37 | 3.0 | 3.0 | 0.00 | 0.05 | 0.05 | 84 | 1017.9 |
| 20260901191658 | 86 | 37 | 3.0 | 5.0 | 0.00 | 0.05 | 0.05 | 83 | 1017.9 |
| 20260901191154 | 85 | 12 | 8.0 | 9.0 | 0.00 | 0.05 | 0.05 | 83 | 1017.9 |
| 20260901190650 | 86 | 57 | 7.0 | 8.0 | 0.00 | 0.05 | 0.05 | 83 | 1017.9 |
| 20260901190149 | 85 | 53 | 5.0 | 8.0 | 0.00 | 0.05 | 0.05 | 86 | 1017.9 |
| 20260901185647 | 85 | 50 | 3.0 | 5.0 | 0.00 | 0.05 | 0.05 | 86 | 1017.9 |
| 20260901185146 | 86 | 60 | 7.0 | 9.0 | 0.00 | 0.05 | 0.05 | 85 | 1017.9 |
| 20260901184643 | 85 | 54 | 5.0 | 7.0 | 0.00 | 0.05 | 0.05 | 84 | 1017.9 |
| 20260901184137 | 86 | 39 | 8.0 | 10.0 | 0.00 | 0.05 | 0.05 | 83 | 1017.9 |
| 20260901183632 | 86 | 32 | 5.0 | 6.0 | 0.00 | 0.05 | 0.05 | 86 | 1017.9 |
| 20260901183127 | 86 | 77 | 1.0 | 2.0 | 0.00 | 0.05 | 0.05 | 87 | 1018.2 |
| 20260901182623 | 85 | 10 | 4.0 | 5.0 | 0.00 | 0.05 | 0.05 | 87 | 1018.2 |
| 20260901182122 | 84 | 49 | 4.0 | 6.0 | 0.00 | 0.05 | 0.05 | 88 | 1018.6 |
| 20260901181616 | 85 | 52 | 5.0 | 7.0 | 0.00 | 0.05 | 0.05 | 89 | 1018.9 |
| 20260901181116 | 85 | 89 | 4.0 | 5.0 | 0.00 | 0.05 | 0.05 | 88 | 1018.6 |
| 20260901180610 | 85 | 47 | 5.0 | 7.0 | 0.00 | 0.05 | 0.05 | 86 | 1018.6 |
| 20260901180104 | 85 | 88 | 4.0 | 5.0 | 0.00 | 0.05 | 0.05 | 88 | 1018.6 |
| 20260901175557 | 86 | 50 | 10.0 | 13.0 | 0.00 | 0.05 | 0.05 | 86 | 1018.2 |
| 20260901175052 | 85 | 99 | 6.0 | 7.0 | 0.00 | 0.05 | 0.05 | 88 | 1018.6 |
| 20260901174548 | 85 | 69 | 2.0 | 3.0 | 0.00 | 0.05 | 0.05 | 90 | 1018.9 |
| 20260901174044 | 84 | 60 | 3.0 | 5.0 | 0.00 | 0.05 | 0.05 | 89 | 1018.9 |
| 20260901173538 | 85 | 51 | 2.0 | 3.0 | 0.00 | 0.05 | 0.05 | 90 | 1018.9 |
| 20260901173034 | 85 | 32 | 2.0 | 3.0 | 0.00 | 0.05 | 0.05 | 91 | 1018.9 |
| 20260901172530 | 85 | 50 | 9.0 | 10.0 | 0.00 | 0.05 | 0.05 | 88 | 1018.9 |
| 20260901172028 | 86 | 43 | 4.0 | 6.0 | 0.00 | 0.05 | 0.05 | 87 | 1018.9 |
| 20260901171527 | 85 | 53 | 5.0 | 6.0 | 0.00 | 0.05 | 0.05 | 90 | 1019.2 |
| 20260901171025 | 84 | 66 | 3.0 | 5.0 | 0.00 | 0.05 | 0.05 | 92 | 1019.2 |
| 20260901170520 | 83 | 67 | 3.0 | 5.0 | 0.00 | 0.05 | 0.05 | 91 | 1019.2 |
| 20260901170015 | 82 | 53 | 3.0 | 5.0 | 0.00 | 0.05 | 0.05 | 95 | 1018.9 |
| 20260901165509 | 81 | 56 | 2.0 | 2.0 | 0.00 | 0.05 | 0.05 | 96 | 1019.2 |
| 20260901165004 | 81 | 71 | 1.0 | 2.0 | 0.00 | 0.05 | 0.05 | 98 | 1018.9 |
| 20260901164500 | 80 | 223 | 1.0 | 1.0 | 0.00 | 0.05 | 0.05 | 96 | 1019.6 |
| 20260901163954 | 79 | 44 | 0.0 | 0.0 | 0.05 | 0.05 | 0.05 | 99 | 1019.6 |
| 20260901163450 | 79 | 42 | 0.0 | 0.0 | 0.17 | 0.05 | 0.05 | 99 | 1019.2 |
| 20260901162948 | 79 | 49 | 2.0 | 3.0 | 0.24 | 0.04 | 0.04 | 99 | 1019.2 |
| 20260901162444 | 79 | 50 | 4.0 | 6.0 | 0.12 | 0.02 | 0.02 | 97 | 1019.6 |
| 20260901161943 | 81 | 41 | 6.0 | 8.0 | 0.00 | 0.00 | 0.00 | 93 | 1019.6 |
| 20260901161443 | 80 | 13 | 5.0 | 6.0 | 0.00 | 0.00 | 0.00 | 91 | 1019.6 |
| 20260901160937 | 82 | 62 | 7.0 | 10.0 | 0.00 | 0.00 | 0.00 | 90 | 1019.6 |
| 20260901160433 | 82 | 46 | 9.0 | 15.0 | 0.00 | 0.00 | 0.00 | 91 | 1019.6 |
| 20260901155932 | 84 | 54 | 9.0 | 13.0 | 0.00 | 0.00 | 0.00 | 90 | 1019.6 |
| 20260901155427 | 86 | 63 | 6.0 | 8.0 | 0.00 | 0.00 | 0.00 | 84 | 1019.6 |
| 20260901154924 | 86 | 59 | 3.0 | 3.0 | 0.00 | 0.00 | 0.00 | 84 | 1019.6 |
| 20260901154423 | 84 | 36 | 3.0 | 5.0 | 0.00 | 0.00 | 0.00 | 85 | 1019.2 |
| 20260901153918 | 85 | 64 | 3.0 | 3.0 | 0.00 | 0.00 | 0.00 | 85 | 1019.2 |
| 20260901153418 | 86 | 67 | 3.0 | 3.0 | 0.00 | 0.00 | 0.00 | 84 | 1019.6 |
| 20260901152912 | 87 | 51 | 5.0 | 8.0 | 0.00 | 0.00 | 0.00 | 83 | 1019.6 |
| 20260901152407 | 86 | 280 | 3.0 | 3.0 | 0.00 | 0.00 | 0.00 | 81 | 1019.6 |
| 20260901151901 | 87 | 47 | 3.0 | 5.0 | 0.00 | 0.00 | 0.00 | 84 | 1019.6 |
| 20260901151401 | 86 | 358 | 4.0 | 6.0 | 0.00 | 0.00 | 0.00 | 82 | 1019.6 |
| 20260901150900 | 84 | 71 | 2.0 | 3.0 | 0.00 | 0.00 | 0.00 | 86 | 1019.6 |
| 20260901150353 | 85 | 0 | 3.0 | 3.0 | 0.00 | 0.00 | 0.00 | 85 | 1019.6 |
| 20260901145850 | 85 | 26 | 2.0 | 2.0 | 0.00 | 0.00 | 0.00 | 85 | 1019.6 |
| 20260901145350 | 85 | 16 | 4.0 | 5.0 | 0.00 | 0.00 | 0.00 | 85 | 1019.6 |
| 20260901144845 | 85 | 73 | 1.0 | 2.0 | 0.00 | 0.00 | 0.00 | 84 | 1019.2 |
| 20260901144341 | 84 | 28 | 4.0 | 5.0 | 0.00 | 0.00 | 0.00 | 85 | 1019.2 |
| 20260901143837 | 84 | 33 | 3.0 | 5.0 | 0.00 | 0.00 | 0.00 | 87 | 1019.2 |
| 20260901143333 | 84 | 24 | 2.0 | 3.0 | 0.00 | 0.00 | 0.00 | 87 | 1019.2 |
| 20260901142829 | 84 | 359 | 3.0 | 5.0 | 0.00 | 0.00 | 0.00 | 87 | 1019.2 |
| 20260901142328 | 85 | 56 | 1.0 | 1.0 | 0.00 | 0.00 | 0.00 | 88 | 1019.2 |
| 20260901141823 | 83 | 55 | 1.0 | 2.0 | 0.00 | 0.00 | 0.00 | 88 | 1019.2 |
| 20260901141318 | 83 | 358 | 5.0 | 7.0 | 0.00 | 0.00 | 0.00 | 90 | 1019.6 |
| 20260901140817 | 83 | 62 | 4.0 | 5.0 | 0.00 | 0.00 | 0.00 | 91 | 1018.9 |
| 20260901140315 | 84 | 77 | 2.0 | 2.0 | 0.00 | 0.00 | 0.00 | 91 | 1019.2 |
| 20260901135810 | 84 | 60 | 2.0 | 5.0 | 0.00 | 0.00 | 0.00 | 89 | 1018.9 |
| 20260901135305 | 84 | 36 | 2.0 | 2.0 | 0.00 | 0.00 | 0.00 | 90 | 1018.9 |
| 20260901134801 | 83 | 24 | 5.0 | 6.0 | 0.00 | 0.00 | 0.00 | 91 | 1018.9 |
| 20260901134301 | 83 | 16 | 5.0 | 6.0 | 0.00 | 0.00 | 0.00 | 91 | 1019.2 |
| 20260901133755 | 83 | 60 | 5.0 | 6.0 | 0.00 | 0.00 | 0.00 | 92 | 1018.9 |
| 20260901133254 | 82 | 32 | 4.0 | 6.0 | 0.00 | 0.00 | 0.00 | 92 | 1018.9 |
| 20260901132753 | 83 | 67 | 3.0 | 3.0 | 0.00 | 0.00 | 0.00 | 92 | 1018.9 |
| 20260901132248 | 82 | 298 | 4.0 | 5.0 | 0.00 | 0.00 | 0.00 | 93 | 1018.9 |
| 20260901131743 | 82 | 11 | 3.0 | 3.0 | 0.00 | 0.00 | 0.00 | 95 | 1018.9 |
| 20260901131242 | 82 | 58 | 3.0 | 5.0 | 0.00 | 0.00 | 0.00 | 96 | 1018.9 |
| 20260901130737 | 81 | 62 | 2.0 | 2.0 | 0.00 | 0.00 | 0.00 | 95 | 1019.2 |
| 20260901130237 | 81 | 46 | 2.0 | 2.0 | 0.00 | 0.00 | 0.00 | 96 | 1018.9 |
| 20260901125734 | 81 | 70 | 3.0 | 3.0 | 0.00 | 0.00 | 0.00 | 96 | 1018.9 |
| 20260901125229 | 81 | 45 | 2.0 | 2.0 | 0.00 | 0.00 | 0.00 | 95 | 1018.9 |
| 20260901124724 | 81 | 2 | 4.0 | 5.0 | 0.00 | 0.00 | 0.00 | 95 | 1018.9 |
| 20260901124219 | 81 | 184 | 1.0 | 2.0 | 0.00 | 0.00 | 0.00 | 96 | 1018.9 |
| 20260901123718 | 81 | 158 | 1.0 | 1.0 | 0.00 | 0.00 | 0.00 | 97 | 1018.9 |
| 20260901123214 | 81 | 50 | 2.0 | 2.0 | 0.00 | 0.00 | 0.00 | 97 | 1018.9 |
| 20260901122712 | 80 | 86 | 2.0 | 2.0 | 0.00 | 0.00 | 0.00 | 98 | 1018.6 |
| 20260901122207 | 80 | 51 | 2.0 | 2.0 | 0.00 | 0.00 | 0.00 | 98 | 1018.6 |
| 20260901121701 | 80 | 70 | 2.0 | 2.0 | 0.00 | 0.00 | 0.00 | 99 | 1018.6 |
| 20260901121157 | 79 | 64 | 0.0 | 0.0 | 0.00 | 0.00 | 0.00 | 99 | 1018.6 |
| 20260901120656 | 78 | 115 | 0.0 | 0.0 | 0.00 | 0.00 | 0.00 | 99 | 1018.2 |
| 20260901120151 | 78 | 36 | 0.0 | 0.0 | 0.00 | 0.00 | 0.00 | 99 | 1018.6 |
| 20260901115646 | 77 | 92 | 0.0 | 0.0 | 0.00 | 0.00 | 0.00 | 99 | 1018.2 |
| 20260901115143 | 77 | 129 | 0.0 | 0.0 | 0.00 | 0.00 | 0.00 | 99 | 1018.2 |
| 20260901114639 | 76 | 82 | 0.0 | 0.0 | 0.00 | 0.00 | 0.00 | 99 | 1018.2 |
| 20260901114139 | 76 | 132 | 0.0 | 0.0 | 0.00 | 0.00 | 0.00 | 99 | 1018.6 |
| 20260901113637 | 76 | 183 | 0.0 | 0.0 | 0.00 | 0.00 | 0.00 | 99 | 1018.2 |
| 20260901113133 | 76 | 182 | 0.0 | 0.0 | 0.00 | 0.00 | 0.00 | 99 | 1018.2 |
| 20260901112627 | 76 | 194 | 0.0 | 0.0 | 0.00 | 0.00 | 0.00 | 99 | 1018.2 |
| 20260901112121 | 76 | 194 | 0.0 | 0.0 | 0.00 | 0.00 | 0.00 | 99 | 1018.2 |
| 20260901111621 | 76 | 195 | 0.0 | 0.0 | 0.00 | 0.00 | 0.00 | 99 | 1018.2 |
| 20260901111119 | 76 | 197 | 0.0 | 0.0 | 0.00 | 0.00 | 0.00 | 99 | 1017.9 |
| 20260901110615 | 76 | 197 | 0.0 | 0.0 | 0.00 | 0.00 | 0.00 | 99 | 1017.9 |
| 20260901110110 | 76 | 197 | 0.0 | 0.0 | 0.00 | 0.00 | 0.00 | 99 | 1017.9 |
| 20260901105607 | 76 | 197 | 0.0 | 0.0 | 0.00 | 0.00 | 0.00 | 99 | 1017.9 |
| 20260901105100 | 76 | 98 | 0.0 | 0.0 | 0.00 | 0.00 | 0.00 | 99 | 1017.5 |
| 20260901104557 | 76 | 108 | 0.0 | 0.0 | 0.00 | 0.00 | 0.00 | 99 | 1017.9 |
| 20260901104051 | 76 | 141 | 0.0 | 0.0 | 0.00 | 0.00 | 0.00 | 99 | 1017.9 |
| 20260901103545 | 76 | 133 | 0.0 | 0.0 | 0.00 | 0.00 | 0.00 | 99 | 1017.9 |
| 20260901103042 | 76 | 211 | 0.0 | 0.0 | 0.00 | 0.00 | 0.00 | 99 | 1017.5 |
| 20260901102541 | 77 | 78 | 0.0 | 0.0 | 0.00 | 0.00 | 0.00 | 99 | 1017.5 |
| 20260901102036 | 77 | 84 | 0.0 | 0.0 | 0.00 | 0.00 | 0.00 | 99 | 1017.5 |
| 20260901101532 | 77 | 84 | 0.0 | 0.0 | 0.00 | 0.00 | 0.00 | 99 | 1017.5 |
| 20260901101031 | 77 | 85 | 0.0 | 0.0 | 0.00 | 0.00 | 0.00 | 99 | 1017.2 |
| 20260901100526 | 77 | 124 | 0.0 | 0.0 | 0.00 | 0.00 | 0.00 | 99 | 1017.5 |
| 20260901100025 | 77 | 141 | 0.0 | 0.0 | 0.00 | 0.00 | 0.00 | 99 | 1017.5 |
| 20260901095523 | 77 | 131 | 0.0 | 0.0 | 0.00 | 0.00 | 0.00 | 99 | 1017.5 |
| 20260901095021 | 77 | 284 | 0.0 | 0.0 | 0.00 | 0.00 | 0.00 | 99 | 1017.5 |
| 20260901094516 | 77 | 81 | 0.0 | 0.0 | 0.00 | 0.00 | 0.00 | 99 | 1017.2 |
| 20260901094016 | 77 | 81 | 0.0 | 0.0 | 0.00 | 0.00 | 0.00 | 99 | 1017.2 |
| 20260901093510 | 77 | 91 | 0.0 | 0.0 | 0.00 | 0.00 | 0.00 | 99 | 1017.2 |
| 20260901093005 | 77 | 357 | 0.0 | 0.0 | 0.00 | 0.00 | 0.00 | 99 | 1017.5 |
| 20260901092501 | 77 | 97 | 0.0 | 0.0 | 0.00 | 0.00 | 0.00 | 99 | 1017.5 |
| 20260901091957 | 77 | 121 | 0.0 | 0.0 | 0.00 | 0.00 | 0.00 | 99 | 1017.2 |
| 20260901091452 | 77 | 123 | 0.0 | 0.0 | 0.00 | 0.00 | 0.00 | 99 | 1017.2 |
| 20260901090946 | 77 | 104 | 0.0 | 0.0 | 0.00 | 0.00 | 0.00 | 99 | 1017.2 |
| 20260901090446 | 77 | 104 | 0.0 | 0.0 | 0.00 | 0.00 | 0.00 | 99 | 1017.2 |
| 20260901085942 | 77 | 27 | 0.0 | 0.0 | 0.00 | 0.00 | 0.00 | 99 | 1017.5 |
| 20260901085438 | 77 | 82 | 0.0 | 0.0 | 0.00 | 0.00 | 0.00 | 99 | 1017.2 |
| 20260901084934 | 77 | 312 | 0.0 | 0.0 | 0.00 | 0.00 | 0.00 | 99 | 1017.5 |
| 20260901084430 | 77 | 25 | 0.0 | 0.0 | 0.00 | 0.00 | 0.00 | 99 | 1017.5 |
| 20260901083926 | 77 | 50 | 0.0 | 0.0 | 0.00 | 0.00 | 0.00 | 99 | 1017.5 |
| 20260901083425 | 77 | 83 | 0.0 | 0.0 | 0.00 | 0.00 | 0.00 | 99 | 1017.5 |
| 20260901082924 | 77 | 135 | 0.0 | 0.0 | 0.00 | 0.00 | 0.00 | 99 | 1017.2 |
| 20260901082419 | 77 | 91 | 0.0 | 0.0 | 0.00 | 0.00 | 0.00 | 99 | 1017.2 |
| 20260901081914 | 77 | 23 | 0.0 | 0.0 | 0.00 | 0.00 | 0.00 | 99 | 1017.2 |
| 20260901081409 | 77 | 42 | 0.0 | 0.0 | 0.00 | 0.00 | 0.00 | 99 | 1017.5 |
| 20260901080903 | 77 | 48 | 0.0 | 0.0 | 0.00 | 0.00 | 0.00 | 99 | 1017.5 |
| 20260901080357 | 77 | 81 | 0.0 | 0.0 | 0.00 | 0.00 | 0.00 | 99 | 1017.5 |
| 20260901075851 | 77 | 88 | 0.0 | 0.0 | 0.00 | 0.00 | 0.00 | 99 | 1017.2 |
| 20260901075347 | 77 | 41 | 0.0 | 0.0 | 0.00 | 0.00 | 0.00 | 99 | 1017.5 |
| 20260901074842 | 77 | 345 | 0.0 | 0.0 | 0.00 | 0.00 | 0.00 | 99 | 1017.2 |
| 20260901074336 | 76 | 328 | 0.0 | 0.0 | 0.00 | 0.00 | 0.00 | 99 | 1017.2 |
| 20260901073827 | 76 | 229 | 0.0 | 0.0 | 0.00 | 0.00 | 0.00 | 99 | 1017.5 |
| 20260901073322 | 76 | 228 | 0.0 | 0.0 | 0.00 | 0.00 | 0.00 | 99 | 1017.2 |
| 20260901072818 | 76 | 228 | 0.0 | 0.0 | 0.00 | 0.00 | 0.00 | 99 | 1017.5 |
| 20260901072317 | 77 | 227 | 0.0 | 0.0 | 0.00 | 0.00 | 0.00 | 99 | 1017.5 |
| 20260901071813 | 76 | 227 | 0.0 | 0.0 | 0.00 | 0.00 | 0.00 | 99 | 1017.5 |
| 20260901071311 | 77 | 227 | 0.0 | 0.0 | 0.00 | 0.00 | 0.00 | 99 | 1017.5 |
| 20260901070810 | 77 | 227 | 0.0 | 0.0 | 0.00 | 0.00 | 0.00 | 99 | 1017.5 |
| 20260901070306 | 77 | 227 | 0.0 | 0.0 | 0.00 | 0.00 | 0.00 | 99 | 1017.5 |
| 20260901065805 | 77 | 227 | 0.0 | 0.0 | 0.00 | 0.00 | 0.00 | 99 | 1017.9 |
| 20260901065300 | 77 | 227 | 0.0 | 0.0 | 0.00 | 0.00 | 0.00 | 99 | 1017.9 |
| 20260901064756 | 77 | 227 | 0.0 | 0.0 | 0.00 | 0.00 | 0.00 | 99 | 1017.5 |
| 20260901064252 | 77 | 220 | 0.0 | 0.0 | 0.00 | 0.00 | 0.00 | 99 | 1017.9 |
| 20260901063750 | 77 | 240 | 0.0 | 0.0 | 0.00 | 0.00 | 0.00 | 99 | 1017.9 |
| 20260901063245 | 77 | 179 | 0.0 | 0.0 | 0.00 | 0.00 | 0.00 | 99 | 1017.9 |
| 20260901062741 | 77 | 178 | 0.0 | 0.0 | 0.00 | 0.00 | 0.00 | 99 | 1017.9 |
| 20260901062237 | 77 | 178 | 0.0 | 0.0 | 0.00 | 0.00 | 0.00 | 99 | 1018.2 |
| 20260901061733 | 77 | 177 | 0.0 | 0.0 | 0.00 | 0.00 | 0.00 | 99 | 1018.2 |
| 20260901061232 | 77 | 177 | 0.0 | 0.0 | 0.00 | 0.00 | 0.00 | 99 | 1018.2 |
| 20260901060728 | 77 | 177 | 0.0 | 0.0 | 0.00 | 0.00 | 0.00 | 99 | 1018.6 |
| 20260901060223 | 77 | 177 | 0.0 | 0.0 | 0.00 | 0.00 | 0.00 | 99 | 1018.6 |
| 20260901055718 | 77 | 175 | 0.0 | 0.0 | 0.00 | 0.00 | 0.00 | 99 | 1018.6 |
| 20260901055215 | 77 | 174 | 0.0 | 0.0 | 0.00 | 0.00 | 0.00 | 99 | 1018.6 |
| 20260901054712 | 77 | 91 | 0.0 | 0.0 | 0.00 | 0.00 | 0.00 | 99 | 1018.6 |
| 20260901054208 | 77 | 91 | 0.0 | 0.0 | 0.00 | 0.00 | 0.00 | 99 | 1018.6 |
| 20260901053703 | 77 | 91 | 0.0 | 0.0 | 0.00 | 0.00 | 0.00 | 99 | 1018.6 |
| 20260901053159 | 77 | 91 | 0.0 | 0.0 | 0.00 | 0.00 | 0.00 | 99 | 1018.6 |
| 20260901052654 | 78 | 93 | 0.0 | 0.0 | 0.00 | 0.00 | 0.00 | 99 | 1018.9 |
| 20260901052149 | 77 | 113 | 0.0 | 0.0 | 0.00 | 0.00 | 0.00 | 99 | 1018.9 |
| 20260901051648 | 77 | 114 | 0.0 | 0.0 | 0.00 | 0.00 | 0.00 | 99 | 1018.9 |
| 20260901051148 | 78 | 113 | 0.0 | 0.0 | 0.00 | 0.00 | 0.00 | 99 | 1018.9 |
| 20260901050643 | 78 | 133 | 0.0 | 0.0 | 0.00 | 0.00 | 0.00 | 99 | 1018.9 |
| 20260901050138 | 78 | 127 | 0.0 | 0.0 | 0.00 | 0.00 | 0.00 | 99 | 1019.2 |
| 20260901045632 | 78 | 91 | 0.0 | 0.0 | 0.00 | 0.00 | 0.00 | 99 | 1019.2 |
| 20260901045127 | 78 | 343 | 0.0 | 0.0 | 0.00 | 0.00 | 0.00 | 99 | 1018.9 |
| 20260901044623 | 78 | 354 | 0.0 | 0.0 | 0.00 | 0.00 | 0.00 | 99 | 1019.2 |
| 20260901044119 | 78 | 325 | 1.0 | 1.0 | 0.00 | 0.00 | 0.00 | 99 | 1019.2 |
| 20260901043614 | 78 | 251 | 0.0 | 0.0 | 0.00 | 0.00 | 0.00 | 99 | 1019.2 |
| 20260901043110 | 78 | 260 | 0.0 | 0.0 | 0.00 | 0.00 | 0.00 | 99 | 1019.2 |
| 20260901042609 | 78 | 237 | 0.0 | 0.0 | 0.00 | 0.00 | 0.00 | 99 | 1019.2 |
| 20260901042105 | 78 | 235 | 0.0 | 0.0 | 0.00 | 0.00 | 0.00 | 99 | 1019.2 |
| 20260901041600 | 78 | 235 | 0.0 | 0.0 | 0.00 | 0.00 | 0.00 | 99 | 1018.9 |
| 20260901041055 | 78 | 235 | 0.0 | 0.0 | 0.00 | 0.00 | 0.00 | 99 | 1018.9 |
| 20260901040554 | 78 | 230 | 0.0 | 0.0 | 0.00 | 0.00 | 0.00 | 99 | 1019.2 |
| 20260901040049 | 78 | 231 | 0.0 | 0.0 | 0.00 | 0.00 | 0.00 | 99 | 1018.9 |
| 20260901035547 | 78 | 230 | 0.0 | 0.0 | 0.00 | 0.00 | 0.00 | 99 | 1018.9 |
| 20260901035045 | 78 | 339 | 0.0 | 0.0 | 0.00 | 0.00 | 0.00 | 99 | 1019.2 |
| 20260901034540 | 78 | 5 | 0.0 | 0.0 | 0.00 | 0.00 | 0.00 | 99 | 1018.9 |
| 20260901034035 | 78 | 5 | 0.0 | 0.0 | 0.00 | 0.00 | 0.00 | 99 | 1019.2 |
| 20260901033533 | 78 | 4 | 0.0 | 0.0 | 0.00 | 0.00 | 0.00 | 99 | 1019.2 |
| 20260901033028 | 78 | 4 | 0.0 | 0.0 | 0.00 | 0.00 | 0.00 | 99 | 1019.2 |
| 20260901032526 | 79 | 4 | 0.0 | 0.0 | 0.00 | 0.00 | 0.00 | 99 | 1019.2 |
| 20260901032022 | 78 | 5 | 0.0 | 0.0 | 0.00 | 0.00 | 0.00 | 99 | 1018.9 |
| 20260901031517 | 78 | 4 | 0.0 | 0.0 | 0.00 | 0.00 | 0.00 | 99 | 1019.2 |
| 20260901031012 | 79 | 4 | 0.0 | 0.0 | 0.00 | 0.00 | 0.00 | 99 | 1019.2 |
| 20260901030512 | 79 | 4 | 0.0 | 0.0 | 0.00 | 0.00 | 0.00 | 99 | 1019.2 |
| 20260901030007 | 79 | 38 | 0.0 | 0.0 | 0.00 | 0.00 | 0.00 | 99 | 1019.2 |
| 20260901025501 | 79 | 38 | 0.0 | 0.0 | 0.00 | 0.00 | 0.00 | 99 | 1019.2 |
| 20260901025000 | 79 | 38 | 0.0 | 0.0 | 0.00 | 0.00 | 0.00 | 99 | 1019.2 |
| 20260901024455 | 79 | 43 | 0.0 | 0.0 | 0.00 | 0.00 | 0.00 | 99 | 1019.2 |
| 20260901023954 | 79 | 41 | 0.0 | 0.0 | 0.00 | 0.00 | 0.00 | 99 | 1019.6 |
| 20260901023449 | 79 | 56 | 0.0 | 0.0 | 0.00 | 0.00 | 0.00 | 99 | 1019.2 |
| 20260901022944 | 79 | 13 | 0.0 | 0.0 | 0.00 | 0.00 | 0.00 | 99 | 1019.2 |
| 20260901022440 | 79 | 43 | 0.0 | 0.0 | 0.00 | 0.00 | 0.00 | 99 | 1019.6 |
| 20260901021934 | 79 | 30 | 0.0 | 0.0 | 0.00 | 0.00 | 0.00 | 99 | 1019.2 |
| 20260901021430 | 79 | 359 | 0.0 | 0.0 | 0.00 | 0.00 | 0.00 | 99 | 1019.2 |
| 20260901020925 | 79 | 359 | 0.0 | 0.0 | 0.00 | 0.00 | 0.00 | 99 | 1018.9 |
| 20260901020421 | 79 | 358 | 0.0 | 0.0 | 0.00 | 0.00 | 0.00 | 99 | 1019.2 |
| 20260901015919 | 79 | 3 | 0.0 | 0.0 | 0.00 | 0.00 | 0.00 | 99 | 1018.9 |
| 20260901015416 | 79 | 23 | 0.0 | 0.0 | 0.00 | 0.00 | 0.00 | 99 | 1019.2 |
| 20260901014915 | 79 | 62 | 0.0 | 0.0 | 0.00 | 0.00 | 0.00 | 99 | 1018.9 |
| 20260901014411 | 79 | 13 | 0.0 | 0.0 | 0.00 | 0.00 | 0.00 | 99 | 1018.9 |
| 20260901013906 | 79 | 43 | 0.0 | 0.0 | 0.00 | 0.00 | 0.00 | 99 | 1018.9 |
| 20260901013357 | 79 | 4 | 0.0 | 0.0 | 0.00 | 0.00 | 0.00 | 99 | 1018.6 |
| 20260901012852 | 79 | 18 | 0.0 | 0.0 | 0.00 | 0.00 | 0.00 | 99 | 1018.6 |
| 20260901012346 | 79 | 36 | 0.0 | 0.0 | 0.00 | 0.00 | 0.00 | 99 | 1018.2 |
| 20260901011842 | 79 | 6 | 0.0 | 0.0 | 0.00 | 0.00 | 0.00 | 99 | 1018.9 |
| 20260901011338 | 79 | 5 | 0.0 | 0.0 | 0.00 | 0.00 | 0.00 | 99 | 1018.9 |
| 20260901010832 | 79 | 15 | 0.0 | 0.0 | 0.00 | 0.00 | 0.00 | 99 | 1018.6 |
| 20260901010326 | 79 | 31 | 0.0 | 0.0 | 0.00 | 0.00 | 0.00 | 99 | 1018.6 |
| 20260901005825 | 79 | 41 | 0.0 | 0.0 | 0.00 | 0.00 | 0.00 | 99 | 1018.6 |
| 20260901005320 | 79 | 66 | 0.0 | 0.0 | 0.00 | 0.00 | 0.00 | 99 | 1018.6 |
| 20260901004820 | 79 | 66 | 0.0 | 0.0 | 0.00 | 0.00 | 0.00 | 99 | 1018.6 |
| 20260901004314 | 79 | 64 | 0.0 | 0.0 | 0.00 | 0.00 | 0.00 | 99 | 1018.2 |
| 20260901003808 | 79 | 78 | 0.0 | 0.0 | 0.00 | 0.00 | 0.00 | 99 | 1018.6 |
| 20260901003303 | 79 | 1 | 0.0 | 0.0 | 0.00 | 0.00 | 0.00 | 99 | 1018.6 |
| 20260901002802 | 79 | 232 | 0.0 | 0.0 | 0.00 | 0.00 | 0.00 | 99 | 1018.2 |
| 20260901002257 | 79 | 324 | 0.0 | 0.0 | 0.00 | 0.00 | 0.00 | 99 | 1018.2 |
| 20260901001752 | 79 | 272 | 1.0 | 2.0 | 0.00 | 0.00 | 0.00 | 99 | 1018.2 |
| 20260901001248 | 79 | 229 | 0.0 | 0.0 | 0.00 | 0.00 | 0.00 | 99 | 1018.2 |
| 20260901000737 | 79 | 0 | 0.0 | 0.0 | 0.00 | 0.00 | 0.00 | 99 | 1017.9 |
| 20260901000233 | 79 | 351 | 0.0 | 0.0 | 0.00 | 0.00 | 0.00 | 98 | 1017.9 |
| 20260831235731 | 79 | 14 | 0.0 | 0.0 | 0.00 | 0.00 | 0.00 | 98 | 1018.2 |
| 20260831235227 | 79 | 14 | 0.0 | 0.0 | 0.00 | 0.00 | 0.00 | 98 | 1018.2 |
| 20260831234722 | 79 | 347 | 0.0 | 0.0 | 0.00 | 0.00 | 0.00 | 98 | 1017.9 |
| 20260831234221 | 79 | 351 | 0.0 | 0.0 | 0.00 | 0.00 | 0.00 | 98 | 1018.2 |
| 20260831233711 | 79 | 351 | 0.0 | 0.0 | 0.00 | 0.00 | 0.00 | 98 | 1017.9 |
| 20260831233206 | 79 | 351 | 0.0 | 0.0 | 0.00 | 0.00 | 0.00 | 98 | 1017.9 |
| 20260831232700 | 79 | 354 | 0.0 | 0.0 | 0.00 | 0.00 | 0.00 | 97 | 1017.9 |
| 20260831232157 | 79 | 359 | 0.0 | 0.0 | 0.00 | 0.00 | 0.00 | 97 | 1018.2 |
| 20260831231653 | 79 | 358 | 0.0 | 0.0 | 0.00 | 0.00 | 0.00 | 97 | 1017.9 |
| 20260831231149 | 79 | 0 | 0.0 | 0.0 | 0.00 | 0.00 | 0.00 | 97 | 1018.2 |
| 20260831230643 | 79 | 2 | 0.0 | 0.0 | 0.00 | 0.00 | 0.00 | 97 | 1017.9 |
| 20260831230139 | 79 | 14 | 2.0 | 2.0 | 0.00 | 0.00 | 0.00 | 97 | 1017.9 |
| 20260831225638 | 79 | 6 | 2.0 | 2.0 | 0.00 | 0.00 | 0.00 | 97 | 1017.9 |
| 20260831225133 | 79 | 349 | 1.0 | 2.0 | 0.00 | 0.00 | 0.00 | 97 | 1018.2 |
| 20260831224629 | 78 | 349 | 2.0 | 2.0 | 0.00 | 0.00 | 0.00 | 97 | 1017.9 |
| 20260831224124 | 78 | 38 | 1.0 | 1.0 | 0.00 | 0.00 | 0.00 | 97 | 1018.2 |
| 20260831223619 | 78 | 69 | 1.0 | 1.0 | 0.00 | 0.00 | 0.00 | 97 | 1018.2 |
| 20260831223115 | 78 | 77 | 0.0 | 1.0 | 0.00 | 0.00 | 0.00 | 97 | 1018.2 |
| 20260831222611 | 78 | 92 | 1.0 | 1.0 | 0.00 | 0.00 | 0.00 | 97 | 1018.2 |
| 20260831222111 | 78 | 129 | 1.0 | 1.0 | 0.00 | 0.00 | 0.00 | 97 | 1018.2 |
| 20260831221607 | 78 | 77 | 0.0 | 1.0 | 0.00 | 0.00 | 0.00 | 97 | 1018.2 |
| 20260831221102 | 78 | 92 | 0.0 | 1.0 | 0.00 | 0.00 | 0.00 | 97 | 1018.2 |
| 20260831220556 | 78 | 197 | 0.0 | 0.0 | 0.00 | 0.00 | 0.00 | 97 | 1018.2 |
| 20260831220052 | 78 | 257 | 1.0 | 1.0 | 0.00 | 0.00 | 0.00 | 97 | 1018.6 |
| 20260831215548 | 78 | 289 | 0.0 | 1.0 | 0.00 | 0.00 | 0.00 | 97 | 1018.6 |
| 20260831215043 | 78 | 231 | 3.0 | 3.0 | 0.00 | 0.00 | 0.00 | 97 | 1018.9 |
| 20260831214541 | 79 | 285 | 1.0 | 2.0 | 0.00 | 0.00 | 0.00 | 96 | 1018.9 |
| 20260831214036 | 81 | 179 | 2.0 | 2.0 | 0.00 | 0.00 | 0.00 | 95 | 1018.9 |
| 20260831213533 | 81 | 224 | 1.0 | 2.0 | 0.00 | 0.00 | 0.00 | 96 | 1018.9 |
| 20260831213027 | 82 | 263 | 3.0 | 5.0 | 0.00 | 0.00 | 0.00 | 93 | 1018.9 |
| 20260831212523 | 82 | 240 | 2.0 | 2.0 | 0.00 | 0.00 | 0.00 | 93 | 1018.9 |
| 20260831212019 | 83 | 188 | 2.0 | 2.0 | 0.00 | 0.00 | 0.00 | 92 | 1018.9 |
| 20260831211514 | 83 | 260 | 3.0 | 3.0 | 0.00 | 0.00 | 0.00 | 91 | 1018.6 |
| 20260831211013 | 83 | 226 | 2.0 | 2.0 | 0.00 | 0.00 | 0.00 | 91 | 1018.6 |
| 20260831210508 | 83 | 198 | 1.0 | 1.0 | 0.00 | 0.00 | 0.00 | 91 | 1018.9 |
| 20260831210004 | 83 | 246 | 2.0 | 2.0 | 0.00 | 0.00 | 0.00 | 92 | 1018.6 |
| 20260831205459 | 82 | 207 | 2.0 | 2.0 | 0.00 | 0.00 | 0.00 | 92 | 1018.6 |